Weather History for KGSP - October, 2012

Change the Weather History Date:

Sunday, October 14, 2012

  Actual Average Record
Temperature  
Mean Temperature 62 °F 62 °F  
Max Temperature 70 °F 73 °F 86 °F (1985)
Min Temperature 54 °F 51 °F 30 °F (1988)
Degree Days  
Heating Degree Days 3 4  
Month to date heating degree days 57 43  
Since 1 July heating degree days 61 60  
Cooling Degree Days 0 1  
Month to date cooling degree days 25 33  
Year to date cooling degree days 1814 1695  
Growing Degree Days 10 (Base 50)    
Moisture  
Dew Point 56 °F    
Average Humidity 84    
Maximum Humidity 100    
Minimum Humidity 67    
Precipitation  
Precipitation T in 0.12 in 1.74 in (2014)
Month to date precipitation 2.31 1.63  
Year to date precipitation 32.03 37.57  
Snow  
Snow 0.00 in 0.00 in 0.00 in ()
Month to date snowfall 0.0 0.0  
Since 1 July snowfall T 0.0  
Since 1 September snowfall 0.0 0.0  
Snow Depth 0.00 in    
Sea Level Pressure  
Sea Level Pressure 30.18 in    
Wind  
Wind Speed 2 mph (South)    
Max Wind Speed 8 mph    
Max Gust Speed 9 mph    
Visibility 10 miles    
Events Rain    
T = Trace of Precipitation, MM = Missing Value Source: NWS Daily Summary

Daily Weather History Graph

Daily Weather History Graph

Search for Another Location

Airport or City:

Trip Planner

Search our weather history database for the weather conditions in past years. The results will help you decide how hot, cold, wet, or windy it might be!

Date:

Astronomy

Oct. 14, 2012 Rise Set
Actual Time 7:34 AM EDT 6:54 PM EDT
Civil Twilight 7:08 AM EDT 7:20 PM EDT
Nautical Twilight 6:39 AM EDT 7:49 PM EDT
Astronomical Twilight 6:10 AM EDT 8:18 PM EDT
Moon 6:32 AM EDT (10/14) 6:14 PM EDT (10/14)
Length of Visible Light 12h 11m
Length of Day
11h 20m
Waning Crescent, 1% of the Moon is Illuminated
Oct 14
Waning Crescent
Oct 15
New
Oct 21
First Quarter
Oct 29
Full
Nov 6
Last Quarter

Hourly Weather History & Observations

Time (EDT) Temp. Dew Point Humidity Pressure Visibility Wind Dir Wind Speed Gust Speed Precip Events Conditions
12:53 AM 53.1 °F 48.9 °F 86% 30.30 in 10.0 mi Calm Calm - N/A   Overcast
1:53 AM 55.0 °F 50.0 °F 83% 30.29 in 10.0 mi Calm Calm - N/A   Overcast
2:53 AM 55.0 °F 51.1 °F 86% 30.28 in 10.0 mi Calm Calm - N/A   Overcast
3:53 AM 55.0 °F 51.1 °F 86% 30.26 in 10.0 mi Calm Calm - N/A   Overcast
4:53 AM 55.9 °F 51.1 °F 84% 30.24 in 10.0 mi Calm Calm - N/A   Overcast
5:53 AM 55.9 °F 52.0 °F 87% 30.24 in 10.0 mi Calm Calm - N/A   Overcast
6:53 AM 55.9 °F 52.0 °F 87% 30.25 in 10.0 mi Calm Calm - N/A   Overcast
7:53 AM 57.0 °F 51.1 °F 81% 30.25 in 10.0 mi Calm Calm - N/A   Overcast
8:53 AM 57.9 °F 50.0 °F 75% 30.25 in 10.0 mi Calm Calm - N/A   Overcast
9:53 AM 60.1 °F 52.0 °F 75% 30.25 in 10.0 mi NNE 3.5 mph - N/A   Overcast
10:03 AM 60.8 °F 51.8 °F 72% 30.26 in 10.0 mi Calm Calm - N/A   Overcast
10:27 AM 60.8 °F 51.8 °F 72% 30.26 in 10.0 mi Calm Calm - N/A   Overcast
10:53 AM 62.1 °F 52.0 °F 70% 30.24 in 10.0 mi Calm Calm - N/A   Overcast
11:53 AM 64.9 °F 53.1 °F 65% 30.23 in 10.0 mi Calm Calm - N/A   Overcast
12:42 PM 66.2 °F 55.4 °F 68% 30.23 in 10.0 mi SSW 3.5 mph - N/A   Overcast
12:53 PM 66.9 °F 55.9 °F 68% 30.21 in 10.0 mi SSE 4.6 mph - N/A   Overcast
1:53 PM 66.9 °F 57.0 °F 70% 30.19 in 10.0 mi WNW 3.5 mph - N/A   Overcast
2:53 PM 66.9 °F 57.9 °F 73% 30.16 in 10.0 mi SE 3.5 mph - 0.00 in   Overcast
3:09 PM 68.0 °F 60.8 °F 78% 30.16 in 10.0 mi South 5.8 mph - 0.00 in Rain Light Rain
3:53 PM 68.0 °F 59.0 °F 73% 30.14 in 10.0 mi South 6.9 mph - N/A   Overcast
4:53 PM 69.1 °F 60.1 °F 73% 30.10 in 10.0 mi South 4.6 mph - N/A   Mostly Cloudy
5:36 PM 68.0 °F 60.8 °F 78% 30.11 in 10.0 mi SW 4.6 mph - N/A   Overcast
5:45 PM 69.8 °F 60.8 °F 73% 30.11 in 10.0 mi SSW 5.8 mph - N/A   Overcast
5:53 PM 68.0 °F 61.0 °F 78% 30.09 in 10.0 mi WSW 6.9 mph - N/A   Mostly Cloudy
6:53 PM 66.0 °F 61.0 °F 84% 30.07 in 10.0 mi SSE 3.5 mph - N/A   Clear
7:53 PM 64.0 °F 61.0 °F 90% 30.06 in 10.0 mi SSE 3.5 mph - N/A   Clear
8:53 PM 63.0 °F 60.1 °F 90% 30.04 in 10.0 mi Calm Calm - N/A   Clear
9:53 PM 61.0 °F 60.1 °F 97% 30.04 in 10.0 mi Calm Calm - N/A   Clear
10:41 PM 62.6 °F 60.8 °F 94% 30.05 in 10.0 mi Calm Calm - N/A   Mostly Cloudy
10:53 PM 62.1 °F 60.1 °F 93% 30.04 in 10.0 mi Calm Calm - N/A   Overcast
11:53 PM 63.0 °F 61.0 °F 93% 30.02 in 10.0 mi Calm Calm - N/A   Overcast